Regional Weather Roundup
Issued by NWS Huntsville, AL

Home | Current Version | Previous Version | Text Only | Print | Product List | Glossary On
Versions: 1 2 3 4 5 6 7 8 9 10 11 12 13 14 15 16 17 18 19 20 21 22 23 24 25 26 27 28 29 30 31 32 33 34 35 36 37 38 39 40 41 42 43 44 45 46 47 48 49 50
000
ASUS44 KHUN 250110
RWRHUN

WEATHER ROUNDUP FOR THE TENNESSEE VALLEY
NATIONAL WEATHER SERVICE HUNTSVILLE AL
700 PM CST TUE JAN 24 2017

ALZ001>004-250200-
NORTHWEST ALABAMA

CITY           SKY/WX    TMP DP  RH WIND       PRES   REMARKS
COURTLAND HCN    N/A     48 N/A N/A CALM        N/A
RUSSELLVILLE     N/A     46 N/A N/A MISG        N/A
SHOALS AIRPORT CLEAR     48  36  63 SE6       29.85F
SHOALS TVA RES   N/A     48 N/A N/A MISG        N/A
$$

ALZ005>007-016-250200-
NORTH CENTRAL ALABAMA

CITY           SKY/WX    TMP DP  RH WIND       PRES   REMARKS
CULLMAN AG STN   N/A     46 N/A N/A SW3         N/A
DECATUR AP     CLEAR     49  38  65 E7        29.87F
HUNTSVILLE AP  CLEAR     50  39  66 E6        29.87S
MERIDIANVILLE  CLEAR     45  39  81 CALM      29.88R
REDSTONE ARSN  CLEAR     46  38  74 CALM      29.87S
VINEMONT AP    FAIR      48  35  61 CALM      29.90S
$$

ALZ008>010-250200-
NORTHEAST ALABAMA

CITY           SKY/WX    TMP DP  RH WIND       PRES   REMARKS
ALBERTVILLE    CLEAR     48  41  76 S5        29.88S
FORT PAYNE     CLEAR     43  36  75 CALM      29.89S
SCOTTSBORO AP  CLEAR     46  39  76 CALM      29.89S
SCOTTSBORO HCN   N/A     45 N/A N/A MISG        N/A
VALLEY HEAD      N/A     41 N/A N/A MISG        N/A
$$

TNZ076-096-097-250200-
SOUTHEASTERN MIDDLE TENNESSEE

CITY           SKY/WX    TMP DP  RH WIND       PRES   REMARKS
TULLAHOMA      CLEAR     41  36  81 S3        29.87S
WINCHESTER     CLEAR     43  37  81 CALM      29.86S
$$

...SURROUNDING SITES...

CITY           SKY/WX    TMP DP  RH WIND       PRES   REMARKS
ATLANTA        CLEAR     53  35  50 NW5       29.89R
ANNISTON       CLEAR     48  41  76 CALM      29.91R
BIRMINGHAM     CLEAR     52  39  61 CALM      29.91F
CHATTANOOGA    CLEAR     45  38  76 CALM      29.90R
CORINTH        FAIR      50  36  57 SE7       29.80F
DALTON         CLEAR     43  37  81 CALM      29.90S
GADSDEN        CLEAR     46  41  82 CALM      29.91R
GOLDEN TRNGL   CLEAR     54  37  54 SE9       29.81S
HALEYVILLE     FAIR      50  37  61 S6        29.88S
JACKSON TN     CLEAR     54  35  48 S8        29.76F
MEMPHIS        CLEAR     57  37  47 S9        29.76R
NASHVILLE      CLEAR     48  35  60 SE8       29.86S
OXFORD MS      FAIR      54  39  58 SE9       29.80F
ROME           CLEAR     48  40  73 NW3       29.90R
SAVANNAH       CLEAR     52  36  54 S7        29.80F
TUPELO         CLEAR     53  39  59 SE8       29.82F
TUSCALOOSA     CLEAR     55  37  50 SE7       29.89S
$$

...GULF COAST WEATHER...

CITY           SKY/WX    TMP DP  RH WIND       PRES   REMARKS
GULFPORT       CLEAR     54  50  86 S5        29.93S
PASCAGOULA     CLEAR     48  45  89 CALM      29.95R
MOBILE         CLEAR     55  47  74 S7        29.95R
GULF SHORES    CLEAR     48  48 100 CALM      29.95S
PENSACOLA      CLEAR     53  49  86 CALM      29.95R
DESTIN         CLEAR     63  53  70 CALM      29.95R
PANAMA CITY    CLEAR     58  50  74 CALM      29.95R
APPALACHICOLA  CLEAR     54  50  86 NW3       29.95R
$$




USA.gov is the U.S. government's official web portal to all federal, state and local government web resources and services.